Date,TemperatureHighF,TemperatureAvgF,TemperatureLowF,DewpointHighF,DewpointAvgF,DewpointLowF,HumidityHigh,HumidityAvg,HumidityLow,PressureMaxIn,PressureMinIn,WindSpeedMaxMPH,WindSpeedAvgMPH,GustSpeedMaxMPH,PrecipitationSumIn
2013-1-1,45,41,40,44,41,38,100,97,90,30.42,30.12,30,14,0,0.00
2013-1-2,49,41,35,48,41,35,100,98,92,30.18,29.98,32,9,0,0.00
2013-1-3,47,45,41,46,44,41,99,95,84,30.06,29.86,22,13,0,0.00
2013-1-4,48,42,40,44,42,40,100,99,85,30.17,29.88,23,8,0,0.00
2013-1-5,48,41,35,45,41,35,100,99,84,29.96,29.70,25,16,0,0.00
2013-1-6,42,41,39,42,41,39,100,100,99,29.90,29.59,21,10,0,0.00
2013-1-7,46,43,41,45,42,40,100,96,85,29.91,29.52,24,13,0,0.00
2013-1-8,44,41,36,44,40,36,100,98,90,29.92,29.44,23,12,0,0.00
2013-1-9,40,37,34,40,36,33,100,98,89,30.09,29.46,10,5,0,0.00
2013-1-10,35,33,31,35,32,31,99,96,90,30.29,30.22,11,8,0,0.00
2013-1-11,35,32,30,34,32,29,99,97,88,30.31,30.24,21,9,0,0.00
2013-1-12,38,36,34,36,34,31,99,93,82,30.46,30.29,23,6,0,0.00
2013-1-13,40,37,36,40,37,35,100,100,99,30.45,30.42,9,6,0,0.00
2013-1-14,40,40,39,40,40,39,100,100,100,30.46,30.45,5,4,0,0.00
2013-1-15,44,43,41,44,43,41,100,100,100,30.53,30.41,29,12,0,0.00
2013-1-16,46,44,42,46,44,42,100,100,100,30.46,30.18,15,8,0,0.00
2013-1-17,47,46,45,47,46,45,100,100,99,30.15,29.94,38,25,0,0.00
2013-1-18,46,43,40,46,43,40,100,100,99,30.31,30.11,24,13,0,0.00
2013-1-19,40,38,35,40,38,35,100,100,99,30.42,30.31,21,8,0,0.00
2013-1-20,45,39,37,45,39,37,100,100,99,30.42,30.29,13,8,0,0.00
2013-1-21,42,39,37,42,39,37,100,100,99,30.24,30.16,6,5,0,0.00
2013-1-22,41,38,34,41,38,34,100,100,99,30.14,29.94,8,4,0,0.00
2013-1-23,42,41,41,42,41,40,100,100,99,29.94,29.87,7,4,0,0.00
2013-1-24,44,43,40,44,43,40,100,100,100,30.19,30.05,6,4,0,0.00
2013-1-25,49,45,43,49,45,43,99,99,99,29.97,29.93,3,2,0,0.00
2013-1-26,42,42,41,42,42,41,100,100,100,30.00,29.88,5,3,0,0.00
2013-1-27,40,40,39,40,40,39,100,100,100,30.02,30.01,5,3,0,0.00
2013-1-28,42,40,38,42,40,38,100,100,100,30.00,29.97,8,5,0,0.00
2013-2-28,42,41,40,41,40,40,100,100,99,30.24,30.22,3,2,0,0.00
2013-3-2,47,44,43,47,44,43,100,100,99,30.15,30.03,21,17,0,0.00
2013-3-3,49,43,40,46,43,40,100,98,86,30.31,30.16,22,10,0,0.00
2013-3-4,47,41,37,45,40,37,100,99,91,30.30,30.09,8,5,0,0.00
2013-3-5,47,46,44,42,42,42,94,88,81,29.89,29.85,7,6,0,0.00
2013-3-6,44,43,41,44,43,41,100,100,100,29.73,29.65,9,7,0,0.00
2013-3-7,48,45,43,48,45,43,100,100,100,30.09,29.94,7,6,0,0.00
2013-3-8,50,43,40,49,43,40,100,100,99,30.23,30.11,7,3,0,0.00
2013-3-9,49,42,35,49,42,35,100,100,99,30.50,30.30,8,5,0,0.00
2013-3-10,46,45,43,46,45,43,100,100,99,30.48,30.44,8,6,0,0.00
2013-3-11,48,42,38,47,42,38,100,100,99,30.42,30.31,5,2,0,0.00
2013-3-15,50,50,49,50,50,49,100,100,100,30.15,30.13,2,2,0,0.00
2013-3-16,50,46,41,50,46,41,100,100,99,30.11,29.89,17,8,0,0.00
2013-3-17,46,42,41,44,42,40,100,98,86,30.17,29.95,21,11,0,0.00
2013-5-6,47,47,47,47,47,47,100,100,100,30.10,30.10,0,0,0,0.00
2013-5-7,66,51,41,55,48,41,100,90,67,30.08,30.02,15,10,0,0.00
2013-5-8,57,51,47,57,51,47,100,99,96,30.19,30.00,16,9,0,0.00
2013-5-9,54,50,47,54,50,47,100,100,99,30.27,30.19,10,5,0,0.00
2013-5-10,63,52,47,60,51,-100,100,99,87,30.25,30.09,7,4,0,0.00
2013-5-11,54,51,51,54,48,-100,100,97,100,30.08,29.83,8,4,0,0.00
2013-5-12,54,53,51,54,53,51,100,100,100,29.75,29.70,21,8,0,0.00
2013-5-13,52,50,48,51,49,48,100,100,96,29.83,29.71,23,12,0,0.00
2013-5-14,53,49,48,53,49,48,100,99,95,30.01,29.85,24,17,0,0.00
2013-5-15,54,51,48,54,51,48,100,100,100,30.03,29.88,5,2,0,0.00
2013-5-16,60,49,50,60,27,-100,100,100,99,30.04,29.94,13,7,0,0.00
2013-5-17,-200,0,200,-100,-100,-100,0,0,100,29.92,29.92,5,5,0,0.00
2013-5-18,54,51,51,54,51,51,100,100,100,30.35,30.16,18,14,0,0.00
2013-5-19,62,55,50,61,55,50,100,98,88,30.42,30.36,23,12,0,0.00
2013-5-20,58,53,50,57,53,50,100,100,99,30.35,30.07,8,5,0,0.00
2013-5-21,53,50,48,52,50,48,100,100,99,29.86,29.80,11,6,0,0.00
2013-5-22,53,51,49,53,51,49,100,100,99,29.89,29.87,8,4,0,0.00
2013-5-23,58,54,51,56,54,51,100,97,93,29.98,29.97,8,6,0,0.00
2013-5-24,56,51,48,56,51,48,100,100,99,30.03,30.00,9,7,0,0.00
2013-5-25,55,52,51,55,52,51,100,100,99,30.04,30.01,6,3,0,0.00